Wind_Speed
19 16 15 11 13 11 10 11 15 12 13 12 11 9 5 4 4 5 4 3 3 3 3 4 4 4 4 5 6 8 9 11 13 16 17 16 17 18 20 22 23 24 23
27 22 22 17 13 13 13 16 16 17 15 14 15 14 7 6 6 3 3 3 3 3 2 1 3 4 3 5 7 9 9 10 14 16 15 16 16 14 15 17 21 22 23
37 31 25 26 27 18 15 18 20 17 19 20 17 15 11 10 9 7 7 6 4 5 5 5 6 8 8 8 9 9 10 11 14 15 15 15 15 12 12 12 18 22 25
22 24 19 26 28 18 23 17 20 22 21 24 23 21 20 17 14 11 10 9 9 8 7 6 8 9 9 9 9 10 11 12 13 13 14 13 13 11 10 9 13 17 23
36 37 26 28 26 21 29 27 27 24 23 27 29 27 24 22 18 16 13 12 11 11 11 11 9 10 11 11 10 10 11 12 12 12 12 10 11 10 12 13 14 14 15
41 40 36 22 24 24 29 35 33 29 28 30 32 33 31 28 25 23 20 17 16 14 13 13 11 11 12 12 12 12 11 11 10 10 9 8 9 7 9 10 10 12 10
59 50 44 41 39 33 32 33 27 26 27 32 35 36 38 35 32 31 30 27 23 21 21 19 17 13 13 13 14 12 13 13 12 8 5 3 6 4 5 5 6 7 6
68 70 68 60 58 59 59 48 33 23 25 33 40 38 38 40 39 37 36 35 32 29 26 25 23 20 17 15 15 14 15 14 13 12 6 3 2 1 1 4 5 4 4
74 74 72 72 68 63 58 57 46 34 32 39 43 42 40 41 40 41 41 41 39 37 33 31 28 26 22 20 20 18 18 16 16 14 10 7 7 5 6 6 6 6 4
74 77 78 77 73 70 67 62 56 53 47 53 48 45 38 44 42 37 42 44 45 42 41 37 35 32 28 26 25 23 24 17 19 17 13 11 12 11 11 10 9 9 8
78 80 82 84 77 75 73 72 68 63 61 59 58 54 49 49 44 42 42 43 45 44 45 42 38 37 36 33 30 30 26 17 19 21 18 17 15 15 15 14 13 12 10
76 78 86 83 75 76 76 79 75 66 66 70 68 62 59 56 56 50 43 43 42 45 47 47 43 40 36 33 28 30 28 22 21 22 22 21 18 17 17 16 15 16 14
81 80 82 86 82 78 76 80 85 78 72 70 68 70 67 65 63 59 53 48 45 45 45 44 44 41 37 33 31 28 27 26 21 22 24 21 18 19 20 18 18 18 17
91 89 89 87 84 87 91 88 86 82 82 78 74 72 73 70 68 66 63 57 51 48 48 48 47 45 39 34 31 30 29 28 26 25 22 22 20 20 21 20 18 17 19
98 96 95 94 93 91 89 89 89 90 85 82 81 79 78 75 71 68 64 61 56 54 50 50 49 49 42 38 35 31 29 31 30 27 23 24 25 24 23 16 17 17 21
104 103 102 101 100 99 97 95 93 91 88 87 87 85 82 81 79 72 69 64 62 60 56 54 53 53 49 46 40 40 39 37 33 28 23 24 23 21 18 12 11 14 22
111 109 108 107 106 105 103 102 100 99 97 94 92 91 90 88 84 80 76 71 67 66 64 60 57 59 56 52 52 49 48 44 40 37 33 32 24 24 26 24 23 19 20
120 119 117 115 114 112 110 108 107 105 103 102 100 96 95 93 91 88 84 77 75 71 71 68 65 66 63 62 58 55 54 50 46 46 41 39 36 38 43 42 41 36 42
129 127 125 124 122 120 119 117 116 114 112 109 107 104 102 99 97 96 91 86 83 80 78 79 74 74 74 69 67 62 62 58 55 53 50 47 45 46 47 49 42 32 38
138 136 135 133 131 129 127 125 124 122 120 117 115 113 111 107 105 102 97 93 90 89 87 85 84 81 80 77 74 73 69 66 63 59 57 55 51 51 52 48 48 50 38
144 144 144 144 142 140 137 135 133 130 127 125 122 120 119 116 112 108 104 98 94 95 96 94 90 89 89 85 81 79 76 74 71 68 64 59 59 59 57 56 55 46 39
137 141 144 145 145 145 145 144 143 140 138 135 132 129 126 124 119 113 110 107 103 102 102 101 98 95 93 94 89 86 84 81 78 77 73 68 66 66 63 58 55 53 41
122 125 128 131 134 138 142 144 144 144 143 143 141 138 136 134 127 121 118 114 112 110 107 107 105 101 100 97 95 92 90 89 87 84 82 78 75 74 70 66 64 66 63
109 112 115 117 120 122 124 128 132 137 139 140 140 139 139 141 135 131 129 124 121 118 115 113 113 107 106 105 103 100 100 98 96 95 90 86 83 81 80 76 77 74 67
97 98 100 102 104 108 111 114 117 119 121 124 128 133 136 139 139 136 136 134 131 126 125 122 118 113 111 111 110 107 105 104 104 102 100 95 93 91 88 88 86 83 79
81 84 85 86 90 94 98 101 105 107 110 113 116 119 122 126 131 134 136 137 136 134 133 131 128 123 119 116 115 114 112 110 109 110 107 105 101 98 98 96 94 94 92
Wind_Direction
274 277 277 298 280 275 261 257 263 249 225 226 221 253 208 182 152 140 145 125 116 108 90 90 87 74 53 44 32 22 17 21 25 24 26 25 27 24 28 26 34 36 45
271 279 292 277 279 273 260 260 256 271 259 235 236 234 224 227 252 232 234 231 225 247 264 298 307 313 331 343 355 356 0 1 9 12 19 18 22 27 28 33 41 40 50
254 274 279 284 276 259 254 257 261 265 262 262 263 251 250 250 250 245 252 272 285 275 266 281 298 303 311 323 331 334 340 344 358 4 8 13 12 24 37 33 48 45 46
249 230 250 260 277 278 276 257 257 261 255 256 262 262 262 258 260 258 259 266 279 295 306 297 291 297 304 312 315 323 331 339 350 355 359 11 4 24 41 38 46 48 59
241 242 234 241 244 259 286 282 279 272 265 257 256 260 262 263 264 261 259 260 265 269 282 293 295 312 293 296 303 310 319 328 342 345 356 15 19 20 36 46 46 53 50
205 212 231 232 247 249 270 282 283 277 274 271 261 255 255 258 260 261 261 261 266 272 267 274 283 292 306 303 294 302 310 317 328 338 351 6 38 42 41 44 50 58 59
218 220 220 214 224 230 244 253 253 270 276 276 270 264 259 255 255 260 261 261 261 269 276 278 274 276 284 300 300 301 303 304 309 316 330 11 20 68 36 47 63 73 83
237 232 234 229 234 241 250 244 236 229 248 260 267 266 264 260 256 254 258 261 263 263 267 272 276 278 281 291 289 295 292 288 284 284 283 299 161 200 120 113 119 114 87
238 239 241 236 236 240 241 241 236 229 234 252 258 264 267 267 262 257 256 257 259 262 267 268 270 269 270 271 272 274 274 271 273 264 252 235 209 203 182 184 170 170 170
231 228 234 235 239 237 240 237 238 233 231 232 237 243 247 258 261 260 258 255 256 259 263 267 269 267 266 263 267 263 263 256 258 260 233 226 228 211 211 203 202 198 187
228 229 232 230 235 238 236 231 238 236 236 240 240 236 237 241 244 251 256 258 256 259 260 259 262 265 260 256 257 257 255 241 250 255 236 216 231 231 222 218 218 211 213
231 229 228 233 238 235 233 234 237 241 242 237 240 241 243 244 247 248 253 254 256 257 258 260 261 258 255 251 245 248 256 251 244 243 244 217 224 236 239 236 230 235 234
234 234 231 232 234 233 237 239 237 240 246 238 239 239 242 244 246 246 247 251 253 253 253 253 256 255 249 247 245 244 245 245 242 233 235 234 225 230 234 241 238 234 244
238 237 236 236 237 233 234 235 238 243 245 245 239 238 241 246 249 250 250 246 248 248 251 250 252 252 246 243 232 237 238 239 239 231 225 228 226 231 236 234 240 238 246
238 238 238 239 239 240 239 237 239 241 242 243 244 243 244 247 247 248 248 245 243 246 247 248 248 247 237 230 224 226 233 232 235 230 225 223 227 227 228 222 236 243 246
240 240 240 239 239 240 241 241 242 242 241 241 243 245 245 246 247 247 247 247 242 242 243 244 243 239 233 225 221 226 232 228 227 224 227 224 228 236 245 254 269 284 278
241 242 242 242 242 241 241 242 242 242 243 243 242 243 244 246 246 246 245 245 244 240 240 240 239 232 231 232 232 234 232 228 226 225 215 210 211 214 222 238 255 254 291
244 244 243 243 243 244 244 244 244 245 244 244 245 245 244 244 245 245 245 244 243 241 239 238 235 230 230 238 239 236 233 227 224 224 224 226 217 231 248 254 249 261 274
246 246 245 245 245 245 245 245 245 245 246 246 246 246 246 246 245 246 245 244 243 242 239 238 236 232 232 235 239 239 235 230 227 225 226 229 231 238 243 245 255 253 256
247 247 247 247 246 246 246 246 245 245 245 245 246 247 247 246 246 245 244 243 242 243 241 239 237 235 233 233 234 239 240 233 232 231 230 229 233 235 241 244 246 244 259
249 249 249 248 248 248 248 247 247 246 246 246 245 246 246 247 246 246 246 244 242 242 242 241 239 237 234 232 233 235 237 236 232 230 234 232 236 234 240 244 242 245 243
249 249 250 250 250 250 250 249 249 249 248 247 246 246 246 246 246 245 245 244 243 241 241 242 241 241 239 235 233 232 235 235 234 232 235 236 237 237 240 238 238 226 239
250 250 250 250 250 250 250 250 250 250 250 249 248 247 247 247 246 245 244 244 243 243 241 241 241 240 240 240 236 233 234 235 235 232 234 238 239 238 238 238 239 231 243
253 253 252 252 252 252 251 250 250 251 251 250 249 249 248 248 246 246 244 243 242 242 242 241 241 239 239 240 240 239 235 235 235 234 232 235 238 240 239 240 243 245 243
252 253 253 253 253 253 252 251 250 250 250 249 249 249 247 247 247 246 245 243 242 241 241 241 241 240 239 239 239 240 241 238 236 236 234 232 237 239 240 242 244 247 247
253 253 253 254 254 253 253 252 251 249 247 246 246 246 246 246 245 244 242 242 242 240 240 240 240 239 238 238 239 239 239 240 240 238 237 236 235 237 240 241 243 246 248
Height
11017 11019 11017 11018 11019 11017 11017 11018 11016 11018 11020 11018 11019 11019 11021 11020 11022 11023 11026 11025 11022 11021 11019 11019 11020 11021 11021 11021 11020 11018 11018 11016 11014 11012 11011 11010 11008 11006 11003 10999 10997 10993 10991
11011 11013 11018 11019 11019 11016 11014 11012 11015 11014 11017 11017 11018 11020 11019 11021 11023 11024 11025 11025 11024 11023 11022 11021 11021 11021 11020 11019 11019 11018 11017 11017 11015 11015 11013 11012 11011 11009 11006 11003 11001 10998 10994
11006 11007 11010 11012 11014 11016 11015 11015 11012 11013 11011 11014 11015 11016 11019 11021 11022 11023 11024 11024 11024 11024 11022 11022 11022 11022 11021 11021 11019 11019 11018 11018 11018 11016 11014 11014 11012 11011 11009 11006 11004 11001 10998
11000 11003 11004 11005 11008 11008 11010 11012 11013 11009 11011 11012 11014 11016 11019 11020 11022 11022 11022 11022 11022 11022 11021 11022 11023 11023 11022 11021 11020 11019 11019 11019 11018 11017 11016 11016 11013 11012 11011 11009 11008 11006 11004
10997 10997 10994 10998 11002 11003 11004 11007 11010 11010 11007 11010 11012 11015 11018 11019 11019 11019 11019 11020 11021 11020 11020 11021 11022 11022 11022 11021 11020 11019 11020 11020 11020 11018 11017 11016 11015 11013 11012 11011 11010 11010 11008
10989 10987 10989 10994 10997 10998 10999 11000 11000 11003 11004 11008 11009 11010 11011 11014 11016 11016 11016 11017 11017 11017 11017 11019 11020 11019 11019 11019 11018 11018 11019 11019 11018 11018 11017 11016 11015 11014 11013 11012 11012 11013 11011
10979 10981 10983 10986 10986 10990 10993 10993 10996 10998 10997 11001 11003 11004 11006 11008 11010 11011 11012 11012 11012 11012 11013 11015 11016 11017 11016 11016 11016 11017 11017 11017 11017 11016 11016 11015 11014 11013 11013 11013 11012 11013 11013
10964 10968 10972 10974 10975 10978 10981 10983 10986 10989 10993 10995 10996 10997 10997 11000 11003 11005 11005 11006 11006 11006 11008 11010 11011 11013 11013 11013 11013 11013 11013 11013 11014 11013 11013 11013 11012 11011 11010 11011 11010 11010 11011
10946 10950 10954 10958 10962 10966 10970 10973 10979 10977 10982 10987 10989 10990 10990 10991 10993 10996 10998 10997 10999 11001 11003 11003 11005 11008 11009 11010 11009 11008 11007 11008 11008 11008 11009 11009 11009 11008 11007 11008 11008 11008 11008
10925 10931 10935 10941 10946 10951 10955 10959 10965 10968 10969 10973 10975 10977 10980 10982 10983 10985 10987 10990 10991 10993 10994 10997 10998 10999 11002 11004 11003 11003 11000 11003 11003 11003 11004 11004 11004 11004 11005 11005 11004 11005 11005
10906 10912 10916 10922 10927 10934 10939 10943 10949 10954 10956 10959 10962 10964 10966 10969 10971 10975 10978 10980 10982 10984 10985 10986 10989 10991 10990 10992 10995 10993 10993 10997 10998 10998 11000 11000 11000 11000 11000 11000 11001 11001 11001
10886 10893 10900 10906 10910 10916 10921 10927 10933 10937 10941 10944 10948 10951 10954 10956 10960 10965 10968 10971 10973 10973 10974 10975 10978 10978 10981 10983 10984 10986 10987 10989 10991 10992 10992 10994 10995 10996 10997 10997 10997 10997 10998
10864 10871 10878 10884 10890 10896 10904 10910 10916 10921 10925 10930 10933 10936 10938 10941 10945 10948 10954 10959 10962 10963 10964 10964 10965 10968 10969 10972 10975 10976 10978 10980 10981 10982 10984 10985 10988 10988 10987 10989 10990 10990 10990
10841 10848 10856 10863 10870 10878 10882 10888 10894 10900 10906 10911 10916 10918 10922 10926 10929 10934 10938 10943 10948 10951 10953 10955 10955 10957 10960 10962 10963 10965 10967 10969 10972 10973 10975 10977 10977 10978 10979 10980 10981 10983 10983
10813 10821 10829 10837 10844 10851 10858 10865 10872 10878 10886 10891 10894 10899 10904 10908 10912 10918 10922 10927 10933 10937 10940 10943 10944 10945 10948 10950 10953 10955 10957 10958 10961 10964 10966 10967 10969 10970 10971 10973 10974 10976 10975
10784 10792 10800 10808 10816 10824 10831 10838 10846 10853 10862 10868 10872 10878 10883 10887 10891 10900 10905 10911 10917 10922 10926 10929 10930 10932 10935 10938 10942 10944 10945 10948 10950 10953 10956 10958 10960 10963 10965 10967 10968 10969 10969
10755 10764 10772 10781 10788 10795 10803 10811 10818 10824 10832 10840 10847 10855 10860 10864 10871 10878 10884 10893 10899 10905 10909 10912 10915 10918 10921 10925 10928 10932 10933 10935 10937 10940 10942 10944 10947 10950 10952 10955 10955 10955 10956
10722 10732 10742 10750 10757 10766 10775 10783 10790 10797 10805 10812 10819 10827 10834 10841 10847 10853 10862 10874 10879 10886 10891 10894 10898 10902 10905 10909 10913 10917 10920 10920 10923 10925 10929 10932 10934 10936 10939 10942 10945 10945 10947
10686 10695 10707 10715 10724 10733 10742 10749 10758 10767 10775 10782 10791 10798 10804 10814 10821 10827 10838 10849 10856 10863 10869 10873 10878 10883 10886 10891 10896 10901 10904 10905 10907 10910 10914 10916 10919 10921 10924 10928 10931 10932 10934
10648 10656 10666 10676 10685 10694 10703 10712 10721 10731 10741 10750 10758 10765 10772 10782 10789 10796 10807 10820 10830 10836 10843 10850 10855 10861 10866 10871 10876 10882 10885 10889 10892 10893 10897 10900 10903 10907 10909 10913 10914 10917 10919
10606 10614 10622 10633 10641 10650 10661 10671 10679 10690 10702 10711 10721 10730 10736 10745 10757 10767 10779 10793 10805 10808 10812 10820 10828 10835 10841 10847 10854 10860 10865 10869 10872 10875 10878 10884 10887 10889 10892 10897 10898 10902 10905
10562 10568 10576 10586 10596 10605 10615 10626 10635 10648 10659 10669 10681 10692 10699 10708 10720 10737 10748 10759 10769 10775 10780 10788 10799 10809 10816 10823 10829 10836 10842 10846 10851 10855 10858 10865 10868 10871 10874 10880 10882 10886 10886
10523 10529 10536 10543 10551 10561 10570 10578 10588 10598 10610 10623 10635 10649 10659 10666 10683 10700 10711 10722 10732 10742 10751 10758 10766 10780 10787 10796 10806 10813 10819 10823 10828 10833 10836 10841 10848 10852 10855 10860 10863 10867 10870
10486 10491 10498 10504 10510 10518 10526 10534 10543 10553 10562 10574 10588 10601 10614 10621 10639 10656 10670 10683 10694 10704 10715 10723 10732 10749 10758 10766 10775 10783 10791 10795 10801 10807 10813 10817 10823 10829 10833 10836 10841 10846 10849
10451 10457 10463 10468 10472 10478 10484 10491 10500 10511 10520 10529 10540 10551 10562 10574 10589 10607 10620 10633 10650 10665 10674 10685 10697 10712 10725 10734 10743 10753 10762 10770 10776 10779 10786 10793 10796 10804 10811 10814 10816 10821 10826
10424 10427 10432 10438 10441 10442 10446 10451 10456 10465 10474 10485 10496 10506 10515 10526 10538 10552 10566 10582 10600 10619 10632 10643 10656 10670 10686 10699 10709 10719 10729 10738 10746 10751 10759 10766 10773 10775 10780 10787 10793 10797 10800